Flag for U.S.A. Weather past 2 weeks in Midway, Midway Atoll, U.S.A.

Now
75 °F

Partly sunny.


Feels Like: 75 °F
Forecast: 66 / 77 °F
Wind: 13 mph from East

Location: Midway Island Naval Air Facility

Current Time: Apr 19, 2015 at 11:06:36 AM

Latest Report: Apr 19, 2015 at 9:56 AM


Visibility: N/A

Pressure: 28.25 "Hg

Humidity: 79%

Dew point: 68 °F

Location of MidwayLocation

Historic Weather in Midway — Graph

°F

Midway temperature yesterday

Maximum temperature yesterday: 79 °F (at 12:19 PM)
Minimum temperature yesterday: 65 °F (at 5:56 AM)
Average temperature yesterday: 70 °F

Past Weeks' High & Low Weather Summary

 TemperatureHumidityPressure
High79 °F (Apr 18, 12:19 PM)100% (Apr 4, 11:19 AM)31.00 "Hg (Apr 4, 11:19 AM)
Low60 °F (Apr 7, 12:56 AM)59% (Apr 6, 12:56 PM)28.06 "Hg (Apr 9, 5:56 AM)
Average69 °F87%29.42 "Hg
* Reported Apr 4 9:05 AM — Apr 19 9:56 AM, Midway, Weather by CustomWeather, © 2015

Note: Actual official high and low records may vary slightly from our data, if they occured in-between our weather recording intervals... More about our weather records

Advertising

Midway weather history for previous 24 hours

 ConditionsComfort  
Time TempWeatherWind HumidityBarometerVisibility
9:56 AM
Sun, Apr 19
75 °FPartly sunny.13 mph79%28.25 "HgN/A
9:19 AM72 °FBroken clouds.12 mph94%30.29 "HgN/A
8:56 AM73 °FPartly sunny.13 mph87%28.25 "HgN/A
8:38 AM72 °FPartly sunny.12 mph100%30.28 "HgN/A
8:20 AM72 °FPartly sunny.9 mph100%30.29 "HgN/A
7:56 AM70 °FPartly sunny.9 mph100%28.25 "HgN/A
6:56 AM67 °FBroken clouds.9 mph100%28.25 "HgN/A
5:56 AM67 °FPassing clouds.10 mph100%28.23 "HgN/A
4:56 AM68 °FOvercast.13 mph100%28.22 "HgN/A
3:56 AM68 °FOvercast.12 mph100%28.22 "HgN/A
3:05 AM66 °FPassing clouds.9 mph100%30.26 "HgN/A
2:56 AM66 °FOvercast.13 mphN/A28.22 "HgN/A
2:41 AM66 °FMostly cloudy.No windN/A30.26 "HgN/A
1:56 AM67 °FPassing clouds.12 mph100%28.22 "HgN/A
1:25 AM66 °FPassing clouds.10 mph100%30.27 "HgN/A
12:56 AM67 °FPassing clouds.14 mph100%28.24 "HgN/A
12:26 AM66 °FPassing clouds.12 mph100%30.27 "HgN/A
12:12 AM66 °FPassing clouds.13 mph100%30.28 "HgN/A
11:56 PM
Sat, Apr 18
67 °FPassing clouds.13 mph100%28.24 "HgN/A
11:37 PM66 °FPassing clouds.9 mph100%30.28 "HgN/A
11:08 PM66 °FPartly cloudy.10 mph100%30.28 "HgN/A
10:56 PM67 °FPassing clouds.12 mph100%28.25 "HgN/A
10:43 PM66 °FMostly cloudy.12 mphN/A30.28 "HgN/A
9:56 PM66 °FPassing clouds.12 mphN/A28.25 "HgN/A
9:15 PM66 °FPassing clouds.8 mph100%30.27 "HgN/A
8:56 PM66 °FPassing clouds.10 mph100%28.23 "HgN/A
8:12 PM68 °FPartly cloudy.10 mph100%30.25 "HgN/A
7:56 PM68 °FPassing clouds.10 mph100%28.21 "HgN/A
7:32 PM70 °FMostly cloudy.9 mph94%30.24 "HgN/A
7:13 PM70 °FMostly cloudy.10 mph88%30.23 "HgN/A
6:56 PM69 °FOvercast.10 mph93%28.19 "HgN/A
6:16 PM70 °FBroken clouds.9 mph88%30.21 "HgN/A
5:56 PM70 °FCloudy.10 mph93%28.17 "HgN/A
5:07 PM70 °FCloudy.6 mph100%30.20 "HgN/A
4:56 PM69 °FCloudy.5 mph100%28.17 "HgN/A
4:26 PM72 °FPartly sunny.6 mph88%30.21 "HgN/A
3:56 PM69 °FMostly cloudy.8 mph100%28.17 "HgN/A
3:33 PM73 °FPartly sunny.10 mph78%30.21 "Hg1 mi
3:03 PM75 °FPartly sunny.10 mph74%30.21 "Hg1 mi
2:56 PM75 °FPartly sunny.10 mph71%28.17 "Hg1 mi
2:24 PM75 °FSunny.10 mph74%30.21 "Hg1 mi
1:56 PM76 °FDense fog.10 mph69%28.18 "Hg1 mi
12:56 PM75 °FPartly sunny.7 mph74%28.19 "Hg1 mi
12:19 PM79 °FPartly sunny.8 mph65%30.24 "HgN/A
11:56 AM78 °FSunny.7 mph64%28.20 "HgN/A
Weather by CustomWeather, © 2015

See weather overviewHow to use our weather pages